カタログに戻る

SDGSAT 1

運用中科学SSO
NORAD 49387·PAYLOAD·🇨🇳 China

打ち上げ Nov 5, 2021 から Taiyuan Satellite Launch Center

Loading…

次のパス (今後24時間)

TLE

最新Source: Space-Track

元期: Sep 14, 2026, 14:30 UTC

1 49387U 21100A   26257.60481480  .00001549  00000-0  76039-4 0  9996
2 49387  97.2549 301.1154 0008481 328.1895  31.8827 15.19478681269490

AllMySatでSDGSAT 1をリアルタイム追跡

Download on the App Store